Regional Weather Roundup
Issued by NWS Bismarck, ND

Home | Current Version | Previous Version | Graphics & Text | Print | Product List | Glossary On
Versions: 1 2 3 4 5 6 7 8 9 10 11 12 13 14 15 16 17 18 19 20 21 22 23 24 25 26 27 28 29 30 31 32 33 34 35 36 37 38 39 40 41 42 43 44 45 46 47 48 49 50
000
ASUS43 KBIS 070220
RWRBIS

NWR BROADCAST TEXT
NATIONAL WEATHER SERVICE BISMARCK ND
800 PM CST FRI MAR 06 2015

NOTE: "FAIR" INDICATES FEW OR NO CLOUDS BELOW 12,000 FEET WITH NO
SIGNIFICANT WEATHER AND/OR OBSTRUCTIONS TO VISIBILITY.


CITY           SKY/WX    TMP DP  RH WIND       PRES   REMARKS
WILLISTON      MOCLDY    40  29  64 NW16      30.03R
MINOT          LGT RAIN  39  30  70 W29G38    29.91R
MINOT AFB      MOCLDY    38  34  85 NW29G36   29.89R
BISMARCK       CLOUDY    45  30  55 NW10      30.00R
DICKINSON      CLOUDY    43  27  53 NW15      30.02R
GARRISON         N/A     41  30  65 NW24      29.94R
HETTINGER ARPT CLOUDY    37  21  52 W3        30.03R
JAMESTOWN      PTCLDY    33  24  69 SW10      29.90F
BEACH          CLOUDY    41  27  56 NW10      30.08R
CARRINGTON     FAIR      36  28  75 MISG      29.89S
CROSBY         CLOUDY    37  32  81 NW22G30   29.99R
HARVEY         FAIR      39  32  75 W17G31    29.88S
HAZEN          MOCLDY    43  32  65 W21G26    29.97F
LINTON         CLOUDY    39  28  65 W5        30.01R
MANDAN         CLOUDY    45  32  61 NW22G28   30.01R
OAKES            N/A     34  27  75 S12       29.96F
RUGBY          CLOUDY    36  32  87 W22G28    29.84S
TIOGA          FAIR      36  32  87 NW21G26   30.00R
WATFORD CITY   FAIR      41  28  60 NW14      29.99R
$$

CITY           SKY/WX    TMP DP  RH WIND       PRES   REMARKS
GRAND FORKS    FLURRIES  36  25  64 SW8       29.89F
GRAND FORKS AF MOCLDY    36  23  60 S9        29.87F
DEVILS LAKE    CLOUDY    37  30  75 W20       29.84S
FARGO          MOCLDY    35  21  56 S8        29.95F
CANDO          CLOUDY    36  30  80 W18G24    29.83R
CAVALIER       MOCLDY    32  28  86 SW7       29.84F
GWINNER        PTCLDY    34  27  75 SW10      29.96F
ROLLA          CLOUDY    36  32  87 NW23G30   29.81S
WALHALLA         N/A     32  32 100 SW14G24   29.82S
$$

CITY           SKY/WX    TMP DP  RH WIND       PRES   REMARKS
ABERDEEN       MOCLDY    33  26  75 S13       30.01F
MOBRIDGE       MOCLDY    43  21  41 CALM      29.98R
BUFFALO          N/A     41  20  43 NW14      29.99R
RAPID CITY     CLEAR     39  22  50 NW10      30.10S
GLASGOW        PTCLDY    41  22  46 NW17G24   30.10R
SIDNEY         PTCLDY    43  27  52 W13       30.07R
WOLF POINT     PTCLDY    42  26  53 W13       30.09R
GLENDIVE       MOCLDY    39  27  60 NW13      30.10R
MILES CITY       N/A    N/A N/A N/A MISG        N/A
BAKER          CLOUDY    45  24  43 N15       30.07R
$$

CITY           SKY/WX    TMP DP  RH WIND       PRES   REMARKS
BILLINGS       PTCLDY    51  19  28 NW12      30.17R
GREAT FALLS    CLOUDY    43  20  39 W9        30.18R
REGINA         PTCLDY    34  32  93 NW17      30.00R
ESTEVAN        CLOUDY    36  30  80 NW23G30   29.96R
$$




USA.gov is the U.S. government's official web portal to all federal, state and local government web resources and services.